TimeEDT,TemperatureF,Dew PointF,Humidity,Sea Level PressureIn,VisibilityMPH,Wind Direction,Wind SpeedMPH,Gust SpeedMPH,PrecipitationIn,Events,Conditions,WindDirDegrees,DateUTC
12:54 AM,48.9,37.0,64,30.10,10.0,Calm,Calm,-,N/A,,Clear,0,2013-04-28 04:54:00
1:54 AM,52.0,37.9,59,30.09,10.0,South,6.9,-,N/A,,Clear,190,2013-04-28 05:54:00
2:54 AM,52.0,37.0,57,30.08,10.0,South,5.8,-,N/A,,Clear,190,2013-04-28 06:54:00
3:54 AM,46.9,36.0,66,30.07,10.0,South,3.5,-,N/A,,Clear,190,2013-04-28 07:54:00
4:54 AM,39.9,34.0,79,30.06,10.0,Calm,Calm,-,N/A,,Clear,0,2013-04-28 08:54:00
5:54 AM,39.0,35.1,86,30.06,10.0,Calm,Calm,-,N/A,,Clear,0,2013-04-28 09:54:00
6:54 AM,39.0,35.1,86,30.06,10.0,Calm,Calm,-,N/A,,Clear,0,2013-04-28 10:54:00
7:54 AM,45.0,39.0,80,30.05,10.0,Calm,Calm,-,N/A,,Clear,0,2013-04-28 11:54:00
8:54 AM,52.0,39.0,61,30.04,10.0,ESE,3.5,-,N/A,,Overcast,110,2013-04-28 12:54:00
9:54 AM,53.1,37.9,57,30.04,10.0,East,6.9,-,N/A,,Overcast,90,2013-04-28 13:54:00
10:54 AM,55.0,36.0,49,30.02,10.0,ESE,11.5,-,N/A,,Mostly Cloudy,110,2013-04-28 14:54:00
11:54 AM,55.0,37.9,53,30.00,10.0,ESE,9.2,-,N/A,,Overcast,110,2013-04-28 15:54:00
12:54 PM,57.0,39.0,51,29.98,10.0,ENE,5.8,-,N/A,,Overcast,70,2013-04-28 16:54:00
1:54 PM,55.0,39.0,55,29.96,10.0,ESE,8.1,-,N/A,,Overcast,110,2013-04-28 17:54:00
2:54 PM,55.9,39.9,55,29.94,10.0,ESE,13.8,-,N/A,,Mostly Cloudy,110,2013-04-28 18:54:00
3:54 PM,63.0,43.0,48,29.92,10.0,ESE,13.8,-,N/A,,Clear,110,2013-04-28 19:54:00
4:54 PM,62.1,42.1,48,29.91,10.0,SE,19.6,-,N/A,,Mostly Cloudy,130,2013-04-28 20:54:00
5:54 PM,62.1,43.0,50,29.91,10.0,SE,12.7,-,N/A,,Clear,130,2013-04-28 21:54:00
6:54 PM,64.0,44.1,48,29.90,10.0,South,20.7,-,N/A,,Clear,170,2013-04-28 22:54:00
7:54 PM,59.0,45.0,60,29.91,10.0,SSE,15.0,-,N/A,,Clear,150,2013-04-28 23:54:00
8:54 PM,53.1,46.9,80,29.91,10.0,ESE,9.2,-,N/A,,Mostly Cloudy,120,2013-04-29 00:54:00
9:28 PM,53.6,48.2,82,29.90,10.0,SE,11.5,20.7,N/A,,Mostly Cloudy,140,2013-04-29 01:28:00
9:54 PM,54.0,48.0,80,29.91,10.0,SE,9.2,-,N/A,,Overcast,140,2013-04-29 01:54:00
10:37 PM,53.6,48.2,82,29.89,10.0,SSE,5.8,-,N/A,,Overcast,150,2013-04-29 02:37:00
10:47 PM,53.6,48.2,82,29.90,10.0,SSE,6.9,-,N/A,,Overcast,150,2013-04-29 02:47:00
10:54 PM,53.1,48.9,86,29.90,10.0,SSE,8.1,-,N/A,,Overcast,150,2013-04-29 02:54:00
11:20 PM,53.6,48.2,82,29.89,10.0,SSE,9.2,-,N/A,,Overcast,160,2013-04-29 03:20:00
11:54 PM,53.1,48.9,86,29.88,10.0,SSE,10.4,-,N/A,,Overcast,150,2013-04-29 03:54:00